AirNav   Air Wisconsin pilot careers
 
 508 users online  

UT24 Strawberry Valley Estates Airport
Alton, Utah, USA

GOING TO ALTON?


FAA INFORMATION EFFECTIVE 04 JANUARY 2018

Location

FAA Identifier: UT24
Lat/Long: 37-29-35.9290N / 112-38-43.7670W
37-29.598817N / 112-38.729450W
37.4933136 / -112.6454908
(estimated)
Elevation: 8141 ft. / 2481.4 m (surveyed)
Variation: 14E (1985)
From city: 9 miles NW of ALTON, UT
Time zone: UTC -7 (UTC -6 during Daylight Saving Time)
Zip code: 84762

Airport Operations

Airport use: Private use. Permission required prior to landing
Control tower: no
ARTCC: SALT LAKE CITY CENTER
FSS: CEDAR CITY FLIGHT SERVICE STATION
Attendance: MAY-OCT DAYLIGHT HOURS
Wind indicator: yes
Segmented circle: no

Airport Communications

UNICOM: 122.8

Nearby radio navigation aids

VOR radial/distance  VOR name  Freq  Var
BCEr219/20.0BRYCE CANYON VORTAC112.8015E
EHKr115/26.7ENOCH VOR/DME117.3016E

 
NDB name  Hdg/Dist  Freq  Var  ID
COLORADO CITY016/36.440313EAZC .- --.. -.-.

Airport Services

Airframe service: NONE
Powerplant service: NONE

Runway Information

Runway 3/21

Dimensions: 4200 x 50 ft. / 1280 x 15 m
Surface: dirt
RUNWAY 3  RUNWAY 21
Traffic pattern: leftleft

Airport Ownership and Management from official FAA records

Ownership: Privately-owned
Owner: PINE MEADOW ESTATES, INC.
BOX 471
CEDAR CITY, UT 84720
Phone 435-586-9338
Manager: GARY HACKBART
HC 82 BOX 1169
DUCK CREEK VILLAGE, UT 84762
Phone 435-682-2569
714-544-9223

Instrument Procedures

There are no published instrument procedures at UT24.

Some nearby airports with instrument procedures:

U55 - Panguitch Municipal Airport (24 nm NE)
KCDC - Cedar City Regional Airport (25 nm NW)
KBCE - Bryce Canyon Airport (27 nm NE)
KKNB - Kanab Municipal Airport (29 nm S)
KAZC - Colorado City Municipal Airport (37 nm SW)
 
Loc | Ops | Rwys | IFR | FBO | Links
Com | Nav | Svcs | Stats | Notes


 
Area around UT24 (Strawberry Valley Estates Airport)
 
Road maps at: MapQuest Bing Google
 
Aerial photo
No photo
 
Sectional chart

 
Airport distance calculator
Flying to Strawberry Valley Estates Airport? Find the distance to fly.

From to UT24

Sunrise and sunset
Times for 20-Jan-2018
 Local
(UTC-7)
 Zulu
(UTC)
Morning civil twilight07:1514:15
Sunrise07:4314:43
Sunset17:4000:40
Evening civil twilight18:0901:09

Current date and time
Zulu (UTC)  21-Jan-2018 05:40:38
Local (UTC-7)  20-Jan-2018 22:40:38
 
METAR
KCDC 
25nm NW 
210453Z AUTO 00000KT 10SM FEW022 BKN055 OVC080 M07/M07 A2993 RMK AO2 SLP163 T10721072
KBCE 
27nm NE 
210453Z AUTO 30017KT 10SM CLR M09/M11 A2980 RMK AO2 SLP082 T10891111
KAZC 
37nm SW 
210515Z AUTO 32010KT 10SM CLR M01/M03 A2993 RMK AO2
TAF
KCDC 
25nm NW 
210351Z 2104/2124 36011KT P6SM -SN BKN020 OVC035 TEMPO 2104/2107 3SM -SN OVC015 FM211000 03008KT P6SM SCT020 BKN040 FM211500 01007KT P6SM SCT040
KBCE 
27nm NE 
210115Z 2101/2124 31015G23KT P6SM VCSH SCT015 BKN035 FM211600 32013G20KT P6SM SCT040
NOTAMs
Click for the latest NOTAMs
NOTAMs are issued by the DoD/FAA and will open in a separate window not controlled by AirNav.

 

 
 

Would you like to see your business listed on this page?

 If your business provides an interesting product or service to pilots, flight crews, aircraft, or users of the Strawberry Valley Estates Airport, you should consider listing it here.  To start the listing process, click on the button below
 
Add a business
 

Other Pages about Strawberry Valley Estates Airport

Update a link
 
Copyright © AirNav, LLC. All rights reserved. Privacy Policy  Contact